Weather reports worldwide

Advertisment
Aberdeen/Dyce, United Kingdom (3091): temperature & dewpoint: 18.11.2020 23:00:00 - 24.11.2020 23:00:00 (GMT)Aberdeen/Dyce, United Kingdom (3091): temperature -20cm & temperature -100cm: 18.11.2020 23:00:00 - 24.11.2020 23:00:00 (GMT)Aberdeen/Dyce, United Kingdom (3091): wind speed & gusts: 18.11.2020 23:00:00 - 24.11.2020 23:00:00 (GMT)Aberdeen/Dyce, United Kingdom (3091): wind direction: 18.11.2020 23:00:00 - 24.11.2020 23:00:00 (GMT)Aberdeen/Dyce, United Kingdom (3091): reduced air pressure: 18.11.2020 23:00:00 - 24.11.2020 23:00:00 (GMT)Aberdeen/Dyce, United Kingdom (3091): visibility: 18.11.2020 23:00:00 - 24.11.2020 23:00:00 (GMT)Aberdeen/Dyce, United Kingdom (3091): sunshine duration: 18.11.2020 23:00:00 - 24.11.2020 23:00:00 (GMT)Aberdeen/Dyce, United Kingdom (3091): precipitation: 18.11.2020 23:00:00 - 24.11.2020 23:00:00 (GMT)
Date & Time tt [°C] td [°C] tt -20cm [°C] tt -100cm [°C] ff [km/h] ff [kn] fx [km/h] fx [kn] dd ppp [hPa] vv [km] sd [min] rr [mm]
24.11.2020 23:00:00 5,8 5,0 - - 4 2 - - - 1001,6 10 0 0,0
24.11.2020 22:00:00 6,1 5,3 - - 13 7 - - NNW 1001,1 35 0 0,4
24.11.2020 21:00:00 6,6 5,8 - - 13 7 - - NNW 1000,8 6 0 1,4
24.11.2020 20:00:00 7,4 5,7 - - 28 15 - - NW 1000,4 8 0 0,6
24.11.2020 19:00:00 10,9 7,6 - - 28 15 50 27 SSW 999,2 10 0 0,0
24.11.2020 18:00:00 10,9 7,3 - - 26 14 46 25 SSW 999,1 10 0 0,0
24.11.2020 17:00:00 10,8 7,9 - - 24 13 - - S 998,9 10 0 0,0
24.11.2020 16:00:00 10,5 8,4 - - 29 16 50 27 S 999,2 10 0 0,0
24.11.2020 15:00:00 10,6 8,9 - - 34 18 46 25 S 999,8 10 0 0,0
24.11.2020 14:00:00 10,0 8,9 - - 21 11 - - S 1001,1 7 0 0,0
24.11.2020 13:00:00 10,7 8,2 - - 21 11 - - S 1002,1 40 0 0,0
24.11.2020 12:00:00 10,3 8,5 - - 21 11 - - S 1003,1 10 0 0,0
24.11.2020 11:00:00 9,6 8,1 - - 18 10 - - S 1004,0 10 0 0,0
24.11.2020 10:00:00 9,3 7,1 - - 18 10 - - SSW 1004,6 10 0 0,0
24.11.2020 09:00:00 8,9 7,5 7,7 9,4 8 4 - - SE 1004,8 10 0 0,0
24.11.2020 08:00:00 8,2 6,7 - - 9 5 - - S 1005,0 10 0 0,0
24.11.2020 07:00:00 9,1 7,7 - - 11 6 - - SSW 1005,1 10 0 0,0
24.11.2020 06:00:00 8,3 7,1 - - 9 5 - - S 1005,3 10 0 0,0
24.11.2020 05:00:00 8,1 6,7 - - 16 9 - - S 1005,2 50 0 0,0
24.11.2020 04:00:00 6,2 5,8 - - 2 1 - - SE 1005,3 50 0 0,0
24.11.2020 03:00:00 5,3 4,9 - - 4 2 - - - 1005,8 10 0 0,0
24.11.2020 02:00:00 5,2 4,8 - - 5 3 - - S 1005,8 1,9 0 0,2
24.11.2020 01:00:00 6,2 5,6 - - 5 3 - - SSE 1006,1 45 0 0,0
24.11.2020 00:00:00 7,5 6,5 - - 16 9 - - NNW 1005,5 10 - 0,2
23.11.2020 23:00:00 10,0 8,5 - - 13 7 - - S 1005,0 10 0 0,0
23.11.2020 22:00:00 9,3 8,1 - - 16 9 - - S 1005,4 10 0 0,0
23.11.2020 21:00:00 8,9 7,9 - - 16 9 - - S 1006,5 10 0 0,0
23.11.2020 20:00:00 8,8 7,3 - - 22 12 - - S 1007,1 10 0 0,0
23.11.2020 19:00:00 8,3 6,2 - - 26 14 - - S 1007,4 50 0 0,0
23.11.2020 18:00:00 7,8 6,2 - - 28 15 - - S 1007,8 10 0 0,0
23.11.2020 17:00:00 7,6 5,7 - - 18 10 - - S 1008,4 10 0 0,0
23.11.2020 16:00:00 8,8 4,9 - - 28 15 48 26 SSW 1009,2 50 0 0,0
23.11.2020 15:00:00 7,9 3,7 - - 37 20 55 30 SSW 1009,5 50 0 0,0
23.11.2020 14:00:00 7,8 3,2 - - 26 14 54 29 S 1010,7 10 0 0,0
23.11.2020 13:00:00 7,1 2,3 - - 34 18 65 35 SW 1011,6 10 0 0,0
23.11.2020 12:00:00 7,2 1,5 - - 39 21 61 33 SW 1011,9 10 0 0,0
23.11.2020 11:00:00 7,8 1,5 - - 31 17 57 31 SW 1013,1 10 0 0,0
23.11.2020 10:00:00 7,7 2,6 - - 34 18 46 25 SW 1014,0 10 0 0,0
23.11.2020 09:00:00 7,5 2,9 7,9 9,7 21 11 48 26 SW 1014,8 10 0 0,0
23.11.2020 08:00:00 4,4 2,9 - - 8 4 - - SE 1015,4 10 0 0,0
23.11.2020 07:00:00 5,3 4,2 - - 9 5 - - SSE 1016,5 50 0 0,0
23.11.2020 06:00:00 3,2 1,4 - - 11 6 - - SSE 1017,0 10 0 0,0
23.11.2020 05:00:00 3,2 1,2 - - 13 7 - - SSW 1017,5 10 0 0,0
23.11.2020 04:00:00 1,8 0,0 - - 9 5 - - S 1017,9 10 0 0,0
23.11.2020 03:00:00 1,1 -1,0 - - 5 3 - - S 1018,2 50 0 0,0
23.11.2020 02:00:00 1,6 -2,0 - - 8 4 - - SE 1018,4 10 0 0,0
23.11.2020 01:00:00 3,8 0,2 - - 11 6 - - SW 1018,2 10 0 0,0
23.11.2020 00:00:00 3,6 -0,1 - - 11 6 - - WSW 1018,1 10 - 0,0
22.11.2020 23:00:00 3,4 -0,2 - - 16 9 - - SW 1018,0 50 0 0,0
22.11.2020 22:00:00 4,7 -0,1 - - 13 7 - - W 1017,9 50 0 0,0
22.11.2020 21:00:00 4,6 0,1 - - 16 9 - - W 1017,9 10 0 0,0
22.11.2020 20:00:00 4,4 0,5 - - 15 8 - - SW 1017,5 10 0 0,0
22.11.2020 19:00:00 4,1 0,3 - - 18 10 - - SW 1017,3 50 0 0,0
22.11.2020 18:00:00 4,7 0,0 - - 11 6 - - WSW 1017,2 50 0 0,0
22.11.2020 17:00:00 5,8 0,3 - - 15 8 - - WSW 1017,0 10 0 0,0
22.11.2020 16:00:00 6,5 0,5 - - 16 9 - - WSW 1016,8 10 0 0,0
22.11.2020 15:00:00 6,8 0,5 - - 13 7 - - W 1016,9 10 0 0,0
22.11.2020 14:00:00 7,4 0,7 - - 9 5 - - SW 1017,0 10 0 0,0
22.11.2020 13:00:00 6,9 0,6 - - 13 7 - - W 1016,9 10 0 0,0
22.11.2020 12:00:00 6,7 0,3 - - 15 8 - - WSW 1017,1 10 0 0,0
22.11.2020 11:00:00 6,2 0,2 - - 15 8 - - SSW 1017,1 35 0 0,0
22.11.2020 10:00:00 6,6 -0,2 - - 22 12 - - W 1016,6 10 30 0,0
22.11.2020 09:00:00 5,2 -0,3 8,2 9,7 15 8 - - SSW 1016,1 10 0 0,0
22.11.2020 08:00:00 5,8 -0,1 - - 24 13 - - W 1014,5 10 0 0,0
22.11.2020 07:00:00 6,2 -0,4 - - 26 14 - - W 1013,8 10 0 0,0
22.11.2020 06:00:00 6,5 -0,4 - - 26 14 48 26 W 1013,2 10 0 0,0
22.11.2020 05:00:00 6,5 -0,7 - - 29 16 52 28 W 1012,4 10 0 0,0
22.11.2020 04:00:00 6,2 -0,9 - - 22 12 48 26 WSW 1011,8 10 0 0,0
22.11.2020 03:00:00 5,8 -1,0 - - 18 10 - - WSW 1011,7 10 0 0,0
22.11.2020 02:00:00 5,2 -0,5 - - 22 12 - - WSW 1011,1 10 0 0,0
22.11.2020 01:00:00 5,6 -0,2 - - 24 13 - - W 1011,4 50 0 0,0
22.11.2020 00:00:00 5,9 -0,1 - - 24 13 - - WSW 1011,2 10 - 0,0
21.11.2020 23:00:00 5,8 0,2 - - 26 14 - - WSW 1011,1 10 0 0,0
21.11.2020 22:00:00 6,1 0,3 - - 26 14 - - WSW 1011,1 10 0 0,0
21.11.2020 21:00:00 5,8 0,7 - - 13 7 - - WSW 1011,2 10 0 0,0
21.11.2020 20:00:00 6,1 0,3 - - 18 10 - - WSW 1011,2 10 0 0,0
21.11.2020 19:00:00 6,4 0,0 - - 15 8 - - WSW 1011,3 10 0 0,0
21.11.2020 18:00:00 6,1 -0,6 - - 13 7 - - SW 1011,5 10 0 0,0
21.11.2020 17:00:00 6,3 0,0 - - 13 7 - - SW 1011,0 50 0 0,0
21.11.2020 16:00:00 7,8 -1,0 - - 24 13 - - WSW 1010,9 50 0 0,0
21.11.2020 15:00:00 8,4 1,0 - - 9 5 - - SW 1010,6 10 54 0,0
21.11.2020 14:00:00 9,1 1,8 - - 18 10 - - W 1010,4 10 60 0,0
21.11.2020 13:00:00 9,4 1,4 - - 22 12 - - WSW 1010,2 45 60 0,0
21.11.2020 12:00:00 9,3 1,7 - - 22 12 - - WSW 1010,1 50 54 0,0
21.11.2020 11:00:00 9,2 2,7 - - 21 11 - - SW 1009,9 10 60 0,0
21.11.2020 10:00:00 8,1 2,6 - - 18 10 - - SSW 1009,3 10 54 0,0
21.11.2020 09:00:00 7,4 2,1 8,4 9,7 18 10 - - SW 1009,4 10 0 0,0
21.11.2020 08:00:00 7,4 1,5 - - 13 7 - - SW 1009,7 10 0 0,0
21.11.2020 07:00:00 8,5 1,9 - - 16 9 - - WSW 1009,4 10 0 0,0
21.11.2020 06:00:00 8,7 2,0 - - 13 7 - - WSW 1009,0 10 0 0,0
21.11.2020 05:00:00 10,0 3,5 - - 13 7 - - WSW 1008,3 10 0 0,0
21.11.2020 04:00:00 10,4 4,3 - - 21 11 - - WSW 1008,5 10 0 0,0
21.11.2020 03:00:00 11,1 4,4 - - 24 13 - - WSW 1008,5 50 0 0,0
21.11.2020 02:00:00 11,1 5,5 - - 24 13 - - SW 1008,7 10 0 0,0
21.11.2020 01:00:00 11,1 6,3 - - 26 14 48 26 SSW 1008,6 10 0 0,0
21.11.2020 00:00:00 11,8 6,3 - - 16 9 50 27 SW 1009,1 10 - 0,0
20.11.2020 23:00:00 11,6 8,4 - - 11 6 46 25 S 1009,2 10 0 0,0
20.11.2020 22:00:00 11,5 8,9 - - 28 15 54 29 SSW 1009,2 10 0 0,0
20.11.2020 21:00:00 11,9 8,7 - - 37 20 50 27 SSW 1009,4 10 0 0,0
20.11.2020 20:00:00 11,5 8,5 - - 26 14 - - SW 1009,9 50 0 0,0
20.11.2020 19:00:00 10,8 7,9 - - 29 16 48 26 S 1010,6 10 0 0,0
20.11.2020 18:00:00 10,0 7,9 - - 26 14 - - SSW 1010,9 10 0 0,0
20.11.2020 17:00:00 8,6 6,7 - - 22 12 - - SSW 1012,2 50 0 0,0
20.11.2020 16:00:00 7,8 6,5 - - 26 14 - - S 1013,2 50 0 0,0
20.11.2020 15:00:00 7,3 5,9 - - 26 14 - - S 1014,2 10 0 0,0
20.11.2020 14:00:00 6,7 5,0 - - 24 13 48 26 S 1015,4 10 0 0,0
20.11.2020 13:00:00 6,6 5,0 - - 31 17 52 28 SSW 1017,4 10 0 0,0
20.11.2020 12:00:00 6,0 4,7 - - 28 15 - - SSW 1019,0 40 0 0,0
20.11.2020 11:00:00 5,7 4,8 - - 18 10 - - S 1020,2 12 0 0,0
20.11.2020 10:00:00 4,9 4,4 - - 18 10 - - S 1022,1 10 0 0,0
20.11.2020 09:00:00 4,3 3,3 8,7 9,9 18 10 - - S 1023,1 9 0 0,0
20.11.2020 08:00:00 3,5 1,6 - - 18 10 - - S 1024,2 28 0 0,0
20.11.2020 07:00:00 3,1 0,2 - - 18 10 - - S 1025,0 45 0 0,0
20.11.2020 06:00:00 0,8 -1,6 - - 13 7 - - SSE 1025,6 10 0 0,0
20.11.2020 05:00:00 -1,0 -3,4 - - 4 2 - - - 1026,2 10 0 0,0
20.11.2020 04:00:00 -2,2 -4,0 - - 4 2 - - - 1027,0 10 0 0,0
20.11.2020 03:00:00 1,1 -3,8 - - 5 3 - - - 1027,8 10 0 0,0
20.11.2020 02:00:00 -2,1 -4,4 - - 4 2 - - - 1028,5 10 0 0,0
20.11.2020 01:00:00 0,1 -3,1 - - 5 3 - - WNW 1029,0 50 0 0,0
20.11.2020 00:00:00 1,3 -3,2 - - 4 2 50 27 - 1029,2 10 - 0,0
19.11.2020 23:00:00 1,8 -2,2 - - 13 7 - - WSW 1029,4 50 0 0,0
19.11.2020 22:00:00 1,1 -2,3 - - 5 3 - - - 1029,2 10 0 0,0
19.11.2020 21:00:00 3,2 -1,6 - - 16 9 - - W 1029,2 50 0 0,0
19.11.2020 20:00:00 2,9 -1,1 - - 15 8 - - W 1029,1 10 0 0,0
19.11.2020 19:00:00 2,7 -1,5 - - 9 5 - - W 1028,6 10 0 0,0
19.11.2020 18:00:00 3,2 -0,9 - - 15 8 - - W 1028,4 10 0 0,0
19.11.2020 17:00:00 2,5 -1,0 - - 18 10 - - W 1027,7 50 0 0,0
19.11.2020 16:00:00 3,0 -1,1 - - 21 11 - - W 1026,5 10 0 0,0
19.11.2020 15:00:00 3,2 -0,4 - - 21 11 48 26 WNW 1025,9 10 54 0,0
19.11.2020 14:00:00 4,3 -1,5 - - 26 14 - - WNW 1026,5 10 60 0,0
19.11.2020 13:00:00 4,2 -1,0 - - 24 13 - - W 1025,8 10 60 0,0
19.11.2020 12:00:00 3,9 0,0 - - 24 13 - - WNW 1024,8 10 24 0,0
19.11.2020 11:00:00 3,4 0,1 - - 22 12 - - WNW 1023,8 45 36 0,2
19.11.2020 10:00:00 1,3 -0,2 - - 26 14 50 27 NW 1023,0 9 12 0,2
19.11.2020 09:00:00 1,9 -0,3 9,2 9,9 24 13 50 27 WNW 1021,6 4,0 0 0,4
19.11.2020 08:00:00 2,2 -0,7 - - 28 15 - - NW 1020,6 6 0 0,0
19.11.2020 07:00:00 2,6 0,1 - - 26 14 50 27 NNW 1019,3 10 0 0,4
19.11.2020 06:00:00 2,1 0,2 - - 26 14 52 28 NW 1017,6 10 0 0,4
19.11.2020 05:00:00 3,9 -1,3 - - 26 14 55 30 NW 1015,0 30 0 0,0
19.11.2020 04:00:00 4,0 0,0 - - 29 16 55 30 NNW 1012,7 10 0 0,2
19.11.2020 03:00:00 3,9 1,4 - - 29 16 50 27 NNW 1010,6 5 0 0,6
19.11.2020 02:00:00 4,3 2,1 - - 37 20 63 34 NNW 1008,2 14 0 0,8
19.11.2020 01:00:00 4,5 2,8 - - 39 21 65 35 NNW 1005,5 5 0 1,8
19.11.2020 00:00:00 5,3 3,0 - - 42 23 65 35 NNW 1002,8 6 - 2,0
18.11.2020 23:00:00 5,9 4,1 - - 41 22 63 34 NW 999,7 6 0 1,0

tt = temperature
td = dewpoint
tt -20cm = temperature -20cm
tt -100cm = temperature -100cm
ff = wind speed
fx = gusts
dd = wind direction
ppp = reduced air pressure
vv = visibility
sd = sunshine duration
rr = precipitation

Next stations